Weather History for KFLL - July, 2013

Change the Weather History Date:

Sunday, July 14, 2013

  Actual Average Record
Temperature  
Mean Temperature 80 °F 84 °F  
Max Temperature 88 °F 90 °F 95 °F (2000)
Min Temperature 71 °F 78 °F 69 °F (1965)
Degree Days  
Heating Degree Days 0 0  
Month to date heating degree days 0 0  
Since 1 June heating degree days 0 0  
Since 1 July heating degree days 0 0  
Cooling Degree Days 15 19  
Month to date cooling degree days 237 266  
Year to date cooling degree days 2177 2227  
Since 1 June cooling degree days 781 809  
Growing Degree Days 28 (Base 50)    
Moisture  
Dew Point 72 °F    
Average Humidity 81    
Maximum Humidity 100    
Minimum Humidity 61    
Precipitation  
Precipitation 0.40 in 0.19 in 3.28 in (1993)
Month to date precipitation 9.08 2.99  
Year to date precipitation 48.59 30.64  
Snow  
Snow 0.00 in - - ()
Month to date snowfall 0.0  
Since 1 June snowfall 0.0  
Since 1 July snowfall 0.0  
Snow Depth 0.00 in    
Sea Level Pressure  
Sea Level Pressure 30.05 in    
Wind  
Wind Speed 9 mph (SSE)    
Max Wind Speed 22 mph    
Max Gust Speed 31 mph    
Visibility 9 miles    
Events Rain    
T = Trace of Precipitation, MM = Missing Value Source: NWS Daily Summary

Daily Weather History Graph

Daily Weather History Graph

Search for Another Location

Airport or City:

Trip Planner

Search our weather history database for the weather conditions in past years. The results will help you decide how hot, cold, wet, or windy it might be!

Date:

Astronomy

Jul. 14, 2013 Rise Set
Actual Time 6:37 AM EDT 8:15 PM EDT
Civil Twilight 6:12 AM EDT 8:40 PM EDT
Nautical Twilight 5:41 AM EDT 9:11 PM EDT
Astronomical Twilight 5:09 AM EDT 9:43 PM EDT
Moon 12:11 PM EDT (7/14) No Moon Set
Length of Visible Light 14h 28m
Length of Day
13h 37m
Waxing Crescent, 35% of the Moon is Illuminated
Jul 14
Waxing Crescent
Jul 15
First Quarter
Jul 22
Full
Jul 29
Last Quarter
Aug 6
New

Hourly Weather History & Observations

Time (EDT) Temp. Heat Index Dew Point Humidity Pressure Visibility Wind Dir Wind Speed Gust Speed Precip Events Conditions
12:53 AM 75.0 °F - 72.0 °F 90% 30.03 in 10.0 mi SE 8.1 mph - N/A   Scattered Clouds
1:53 AM 77.0 °F - 73.9 °F 90% 30.02 in 10.0 mi SE 8.1 mph - N/A   Scattered Clouds
2:53 AM 77.0 °F - 73.9 °F 90% 30.01 in 10.0 mi South 5.8 mph - N/A   Overcast
3:53 AM 75.9 °F - 73.9 °F 94% 30.01 in 4.0 mi SSE 9.2 mph - 0.04 in Rain Rain
4:53 AM 75.9 °F - 75.0 °F 97% 30.00 in 10.0 mi South 8.1 mph - 0.02 in   Overcast
5:53 AM 75.9 °F - 75.0 °F 97% 30.00 in 10.0 mi South 5.8 mph - N/A   Scattered Clouds
6:53 AM 75.9 °F - 73.9 °F 94% 30.00 in 10.0 mi South 4.6 mph - N/A   Scattered Clouds
7:53 AM 77.0 °F - 73.0 °F 88% 30.02 in 10.0 mi Calm Calm - N/A   Scattered Clouds
8:53 AM 79.0 °F - 73.0 °F 82% 30.05 in 10.0 mi South 3.5 mph - N/A   Mostly Cloudy
9:53 AM 82.0 °F 86.7 °F 72.0 °F 71% 30.04 in 10.0 mi SE 6.9 mph - N/A   Scattered Clouds
10:53 AM 82.9 °F 87.0 °F 70.0 °F 65% 30.05 in 10.0 mi SSE 12.7 mph - N/A   Mostly Cloudy
11:53 AM 84.0 °F 89.0 °F 71.1 °F 65% 30.07 in 10.0 mi SE 11.5 mph - N/A   Partly Cloudy
12:53 PM 84.0 °F 89.0 °F 71.1 °F 65% 30.07 in 10.0 mi SE 10.4 mph - N/A   Mostly Cloudy
1:53 PM 84.9 °F 90.1 °F 71.1 °F 63% 30.07 in 10.0 mi ESE 13.8 mph - N/A   Mostly Cloudy
2:53 PM 86.0 °F 92.2 °F 72.0 °F 63% 30.05 in 10.0 mi ESE 15.0 mph - N/A   Scattered Clouds
3:53 PM 86.0 °F 93.0 °F 73.0 °F 65% 30.03 in 10.0 mi ESE 17.3 mph 24.2 mph N/A   Partly Cloudy
4:44 PM 84.2 °F 90.9 °F 73.4 °F 70% 30.04 in 10.0 mi East 16.1 mph - N/A   Mostly Cloudy
4:53 PM 84.0 °F 91.2 °F 73.9 °F 72% 30.04 in 10.0 mi East 17.3 mph - N/A   Mostly Cloudy
5:53 PM 82.0 °F 87.9 °F 73.9 °F 76% 30.05 in 10.0 mi East 12.7 mph - N/A   Mostly Cloudy
6:53 PM 73.9 °F - 69.1 °F 85% 30.07 in 10.0 mi NW 18.4 mph 28.8 mph 0.01 in Rain Light Rain
7:05 PM 73.4 °F - 69.8 °F 88% 30.08 in 10.0 mi WNW 12.7 mph 21.9 mph 0.00 in Rain Light Rain
7:29 PM 73.4 °F - 69.8 °F 88% 30.08 in 1.0 mi WNW 11.5 mph 19.6 mph 0.05 in Rain Light Rain
7:33 PM 71.6 °F - 69.8 °F 94% 30.09 in 1.5 mi WNW 15.0 mph 19.6 mph 0.14 in Rain Heavy Rain
7:46 PM 71.6 °F - 69.8 °F 94% 30.08 in 3.0 mi NW 11.5 mph - 0.27 in Rain Rain
7:53 PM 72.0 °F - 70.0 °F 93% 30.09 in 4.0 mi NW 12.7 mph - 0.29 in Rain Rain
8:53 PM 72.0 °F - 71.1 °F 97% 30.08 in 10.0 mi NNW 4.6 mph - 0.04 in Rain Light Rain
9:53 PM 72.0 °F - 71.1 °F 97% 30.08 in 10.0 mi Calm Calm - 0.00 in   Mostly Cloudy
10:53 PM 73.0 °F - 71.1 °F 93% 30.08 in 10.0 mi Calm Calm - N/A   Mostly Cloudy
11:53 PM 73.0 °F - 72.0 °F 96% 30.09 in 10.0 mi Calm Calm - N/A   Scattered Clouds